DF1NW-7 messages


fromtotime message
WXBOT DF1NW-7 12/08 17:01:39z Reply OOMS 081550Z 19003KT 150V250 9999 FEW030 23/20 Q1017 NOSIG{NX
WXBOT DF1NW-7 12/08 17:00:38z Reply OOMS 081550Z 19003KT 150V250 9999 FEW030 23/20 Q1017 NOSIG{NW
WXBOT DF1NW-7 12/08 16:59:32z Reply OOMS 081550Z 19003KT 150V250 9999 FEW030 23/20 Q1017 NOSIG{NV
DF1NW-7 WXBOT 12/08 16:59:26z Send another OOMS{94
WXBOT DF1NW-7 11/28 17:03:55z Reply OOMS 281650Z 09007KT CAVOK 24/13 Q1018 NOSIG{SC
WXBOT DF1NW-7 11/28 17:02:52z Reply OOMS 281650Z 09007KT CAVOK 24/13 Q1018 NOSIG{SB
DF1NW-7 WXBOT 11/28 17:02:45z Send another OOMS{93
DB1NTO-2 DF1NW-7 11/24 17:21:01z Reply Firmware update 015 available! Look at www.db1nto.de{9
DB1NTO-2 DF1NW-7 11/24 17:20:01z Reply Firmware update 015 available! Look at www.db1nto.de{8
DF1NW-7 DB1NTO-2 11/24 17:20:00z Send another PicoAPRS Check Update Version008{53
WXBOT DF1NW-7 11/24 17:12:43z Reply OOMS 241650Z 09006KT CAVOK 24/16 Q1017 NOSIG{MK
WXBOT DF1NW-7 11/24 17:11:40z Reply OOMS 241650Z 09006KT CAVOK 24/16 Q1017 NOSIG{MJ
WXBOT DF1NW-7 11/24 17:10:36z Reply OOMS 241650Z 09006KT CAVOK 24/16 Q1017 NOSIG{MI
DF1NW-7 WXBOT 11/24 17:10:30z Send another OOMS{92
WXBOT DF1NW-7 11/20 15:55:12z Reply TEMPO 2000 TSRA{EL
WXBOT DF1NW-7 11/20 15:55:07z Reply OOMS 201450Z 33014KT 5000 -TSRA FEW025CB BKN045 OVC100 23/21 Q1014{EK
WXBOT DF1NW-7 11/20 15:54:05z Reply TEMPO 2000 TSRA{EJ
WXBOT DF1NW-7 11/20 15:54:00z Reply OOMS 201450Z 33014KT 5000 -TSRA FEW025CB BKN045 OVC100 23/21 Q1014{EI
WXBOT DF1NW-7 11/20 15:53:02z Reply TEMPO 2000 TSRA{EH
WXBOT DF1NW-7 11/20 15:52:57z Reply OOMS 201450Z 33014KT 5000 -TSRA FEW025CB BKN045 OVC100 23/21 Q1014{EG
WXBOT DF1NW-7 11/20 15:51:55z Reply TEMPO 2000 TSRA{EF
WXBOT DF1NW-7 11/20 15:51:50z Reply OOMS 201450Z 33014KT 5000 -TSRA FEW025CB BKN045 OVC100 23/21 Q1014{EE
DF1NW-7 WXBOT 11/20 15:51:41z Send another OOMS{91
DB1NTO-2 DF1NW-7 11/14 09:58:01z Reply Firmware update 015 available! Look at www.db1nto.de{890
DF1NW-7 DB1NTO-2 11/14 09:58:01z Send another PicoAPRS Check Update Version008{52
DB1NTO-2 DF1NW-7 11/14 09:57:01z Reply Firmware update 015 available! Look at www.db1nto.de{889
DB1NTO-2 DF1NW-7 11/14 09:56:01z Reply Firmware update 015 available! Look at www.db1nto.de{888
DB1NTO-2 DF1NW-7 11/14 09:55:01z Reply Firmware update 015 available! Look at www.db1nto.de{887
DB1NTO-2 DF1NW-7 11/14 09:54:01z Reply Firmware update 015 available! Look at www.db1nto.de{886
WXBOT DF1NW-7 11/14 09:48:10z Reply OOMS 140850Z 34010KT 9999 FEW020 28/11 Q1016 NOSIG{EP
DF1NW-7 WXBOT 11/14 09:48:05z Send another OOMS{90
WXBOT DF1NW-7 11/14 09:47:03z Reply OOMS 140850Z 34010KT 9999 FEW020 28/11 Q1016 NOSIG{EO
WXBOT DF1NW-7 11/14 09:46:00z Reply OOMS 140850Z 34010KT 9999 FEW020 28/11 Q1016 NOSIG{EN
WXBOT DF1NW-7 11/08 15:31:12z Reply OOMS 081450Z 08009KT CAVOK 28/18 Q1013 NOSIG{NV
WXBOT DF1NW-7 11/08 15:30:08z Reply OOMS 081450Z 08009KT CAVOK 28/18 Q1013 NOSIG{NU
WXBOT DF1NW-7 11/08 15:29:07z Reply OOMS 081450Z 08009KT CAVOK 28/18 Q1013 NOSIG{NT
DF1NW-7 WXBOT 11/08 15:29:01z Send another OOMS{89
WXBOT DF1NW-7 11/08 15:23:27z Reply OOMS 081450Z 08009KT CAVOK 28/18 Q1013 NOSIG{NS
WXBOT DF1NW-7 11/08 15:22:24z Reply OOMS 081450Z 08009KT CAVOK 28/18 Q1013 NOSIG{NR
WXBOT DF1NW-7 11/08 15:21:20z Reply OOMS 081450Z 08009KT CAVOK 28/18 Q1013 NOSIG{NQ
DF1NW-7 WXBOT 11/08 15:21:14z Send another OOMS{88
DB1NTO-2 DF1NW-7 10/31 10:26:01z Reply Firmware update 015 available! Look at www.db1nto.de{850
DF1NW-7 DB1NTO-2 10/31 10:26:01z Send another PicoAPRS Check Update Version008{51
WXBOT DF1NW-7 10/28 15:42:37z Reply OOMS 281450Z 05013KT CAVOK 30/22 Q1009 NOSIG{TM
WXBOT DF1NW-7 10/28 15:41:33z Reply OOMS 281450Z 05013KT CAVOK 30/22 Q1009 NOSIG{TL
WXBOT DF1NW-7 10/28 15:40:30z Reply OOMS 281450Z 05013KT CAVOK 30/22 Q1009 NOSIG{TI
DF1NW-7 WXBOT 10/28 15:40:24z Send another OOMS{87
WXBOT DF1NW-7 10/27 17:18:02z Reply OOMS 271650Z 07008KT CAVOK 30/24 Q1010 NOSIG{SH
DF1NW-7 WXBOT 10/27 17:17:56z Send another OOMS{86
WXBOT DF1NW-7 10/27 17:11:05z Reply OOMS 271650Z 07008KT CAVOK 30/24 Q1010 NOSIG{SG
DF1NW-7 WXBOT 10/27 17:10:59z Send another OOMS{85
WXBOT DF1NW-7 10/23 08:58:33z Reply OOMS 230750Z 33009KT CAVOK 35/12 Q1010 NOSIG{MS
DB1NTO-2 DF1NW-7 10/09 15:57:02z Reply Firmware update 015 available! Look at www.db1nto.de{217
DF1NW-7 DB1NTO-2 10/09 15:57:01z Send another PicoAPRS Check Update Version008{50
DF1NW-7 WXBOT 10/09 15:52:31z Send another OOMS{83
WXBOT DF1NW-7 10/03 14:28:08z Reply OOMS 031350Z 06012KT 8000 FEW025 31/28 Q1006 NOSIG{VQ
DF1NW-7 WXBOT 10/03 14:28:02z Send another OOMS{82
WXBOT DF1NW-7 10/03 14:27:04z Reply OOMS 031350Z 06012KT 8000 FEW025 31/28 Q1006 NOSIG{VP
WXBOT DF1NW-7 10/03 14:26:01z Reply OOMS 031350Z 06012KT 8000 FEW025 31/28 Q1006 NOSIG{VO